Time,TemperatureF,DewpointF,PressureIn,WindDirection,WindDirectionDegrees,WindSpeedMPH,WindSpeedGustMPH,Humidity,HourlyPrecipIn,Conditions,Clouds,dailyrainin,SoftwareType,DateUTC
2014-11-23 00:22:00,5.0,-4.0,29.53,NE,43,1.0,1.0,65,0.00,,,0.00,,2014-11-23 09:22:00,
2014-11-23 00:53:00,5.0,-4.0,29.54,NE,53,1.0,2.0,65,0.00,,,0.00,,2014-11-23 09:53:00,
2014-11-23 01:23:00,5.0,-4.0,29.54,NE,48,1.0,1.0,65,0.00,,,0.00,,2014-11-23 10:23:00,
2014-11-23 01:53:00,6.0,-3.0,29.54,ENE,65,1.0,2.0,65,0.00,,,0.00,,2014-11-23 10:53:00,
2014-11-23 02:22:00,6.0,-4.0,29.54,East,91,0.0,1.0,64,0.00,,,0.00,,2014-11-23 11:22:00,
2014-11-23 02:52:00,6.0,-3.0,29.54,ENE,66,0.0,3.0,65,0.00,,,0.00,,2014-11-23 11:52:00,
2014-11-23 03:22:00,6.0,-3.0,29.54,East,85,1.0,2.0,66,0.00,,,0.00,,2014-11-23 12:22:00,
2014-11-23 03:52:00,6.0,-3.0,29.54,ENE,66,0.0,1.0,65,0.00,,,0.00,,2014-11-23 12:52:00,
2014-11-23 04:22:00,6.0,-3.0,29.54,NE,45,0.0,1.0,67,0.00,,,0.00,,2014-11-23 13:22:00,
2014-11-23 04:53:00,5.0,-4.0,29.54,NE,54,1.0,3.0,67,0.00,,,0.00,,2014-11-23 13:53:00,
2014-11-23 05:22:00,4.0,-4.0,29.54,East,86,2.0,4.0,69,0.00,,,0.00,,2014-11-23 14:22:00,
2014-11-23 05:42:00,4.0,-4.0,29.54,ENE,70,1.0,2.0,70,0.00,,,0.00,,2014-11-23 14:42:00,
2014-11-23 05:53:00,4.0,-4.0,29.55,ENE,75,2.0,2.0,70,0.00,,,0.00,,2014-11-23 14:53:00,
2014-11-23 06:11:00,4.0,-4.0,29.55,East,88,2.0,2.0,70,0.00,,,0.00,,2014-11-23 15:11:00,
2014-11-23 06:23:00,4.0,-4.0,29.55,East,91,1.0,2.0,70,0.00,,,0.00,,2014-11-23 15:23:00,
2014-11-23 06:44:00,4.0,-4.0,29.55,East,82,1.0,2.0,70,0.00,,,0.00,,2014-11-23 15:44:00,
2014-11-23 06:54:00,4.0,-4.0,29.56,East,91,1.0,3.0,70,0.00,,,0.00,,2014-11-23 15:54:00,
2014-11-23 07:13:00,4.0,-4.0,29.56,East,83,2.0,3.0,70,0.00,,,0.00,,2014-11-23 16:13:00,
2014-11-23 07:23:00,4.0,-3.0,29.56,East,89,2.0,3.0,71,0.00,,,0.00,,2014-11-23 16:23:00,
2014-11-23 07:52:00,4.0,-4.0,29.57,NE,55,2.0,3.0,70,0.00,,,0.00,,2014-11-23 16:52:00,
2014-11-23 08:22:00,4.0,-4.0,29.57,ENE,70,2.0,3.0,70,0.00,,,0.00,,2014-11-23 17:22:00,
2014-11-23 08:53:00,4.0,-4.0,29.57,NNE,16,2.0,2.0,70,0.00,,,0.00,,2014-11-23 17:53:00,
2014-11-23 09:22:00,4.0,-4.0,29.57,NNW,328,1.0,2.0,70,0.00,,,0.00,,2014-11-23 18:22:00,
2014-11-23 09:43:00,4.0,-3.0,29.58,NE,55,1.0,4.0,71,0.00,,,0.00,,2014-11-23 18:43:00,
2014-11-23 09:53:00,4.0,-3.0,29.58,NE,54,0.0,1.0,71,0.00,,,0.00,,2014-11-23 18:53:00,
2014-11-23 10:22:00,4.0,-3.0,29.59,ENE,75,1.0,2.0,71,0.00,,,0.00,,2014-11-23 19:22:00,
2014-11-23 10:52:00,4.0,-3.0,29.59,NE,56,1.0,1.0,72,0.00,,,0.00,,2014-11-23 19:52:00,
2014-11-23 11:22:00,5.0,-2.0,29.60,NW,326,1.0,1.0,71,0.00,,,0.00,,2014-11-23 20:22:00,